Time,TemperatureF,DewpointF,PressureIn,WindDirection,WindDirectionDegrees,WindSpeedMPH,WindSpeedGustMPH,Humidity,HourlyPrecipIn,Conditions,Clouds,dailyrainin,SoftwareType,DateUTC
2013-07-30 00:04:00,79.8,71.6,30.01,SSE,148,7.0,7.0,76,0.00,,SKC,0.00,VWS V14.01,2013-07-30 05:04:00,
2013-07-30 00:09:00,79.7,71.9,30.02,SSE,147,5.0,13.0,77,0.00,,SKC,0.00,VWS V14.01,2013-07-30 05:09:00,
2013-07-30 00:14:00,79.6,71.8,30.02,SSE,147,4.0,13.0,77,0.00,,SKC,0.00,VWS V14.01,2013-07-30 05:14:00,
2013-07-30 00:19:00,79.4,71.9,30.02,SSE,147,3.0,13.0,78,0.00,,SKC,0.00,VWS V14.01,2013-07-30 05:19:00,
2013-07-30 00:24:00,79.2,71.8,30.01,SE,145,6.0,13.0,78,0.00,,SKC,0.00,VWS V14.01,2013-07-30 05:24:00,
2013-07-30 00:29:00,79.1,72.0,30.01,SSE,148,9.0,16.0,79,0.00,,SKC,0.00,VWS V14.01,2013-07-30 05:29:00,
2013-07-30 00:34:00,78.9,71.8,30.01,SE,142,3.0,18.0,79,0.00,,SKC,0.00,VWS V14.01,2013-07-30 05:34:00,
2013-07-30 00:39:00,78.8,72.1,30.01,SE,139,5.0,18.0,80,0.00,,SKC,0.00,VWS V14.01,2013-07-30 05:39:00,
2013-07-30 00:44:00,78.6,71.9,30.01,SE,142,5.0,18.0,80,0.00,,SKC,0.00,VWS V14.01,2013-07-30 05:44:00,
2013-07-30 00:49:00,78.5,72.2,30.02,SE,140,7.0,18.0,81,0.00,,SKC,0.00,VWS V14.01,2013-07-30 05:49:00,
2013-07-30 00:54:00,78.4,72.1,30.02,SE,146,4.0,18.0,81,0.00,,SKC,0.00,VWS V14.01,2013-07-30 05:54:00,
2013-07-30 00:59:00,78.3,72.4,30.02,SSE,148,4.0,18.0,82,0.00,,SKC,0.00,VWS V14.01,2013-07-30 05:59:00,
2013-07-30 01:04:00,78.2,72.3,30.02,SSE,152,3.0,12.0,82,0.00,,SKC,0.00,VWS V14.01,2013-07-30 06:04:00,
2013-07-30 01:09:00,78.1,72.2,30.02,SE,136,4.0,12.0,82,0.00,,SKC,0.00,VWS V14.01,2013-07-30 06:09:00,
2013-07-30 01:14:00,78.0,72.1,30.03,SE,137,5.0,12.0,82,0.00,,SKC,0.00,VWS V14.01,2013-07-30 06:14:00,
2013-07-30 01:19:00,77.9,72.3,30.03,SE,141,5.0,12.0,83,0.00,,SKC,0.00,VWS V14.01,2013-07-30 06:19:00,
2013-07-30 01:24:00,77.8,72.2,30.03,SE,143,1.0,12.0,83,0.00,,SKC,0.00,VWS V14.01,2013-07-30 06:24:00,
2013-07-30 01:29:00,77.8,72.2,30.04,SSE,157,2.0,13.0,83,0.00,,SKC,0.00,VWS V14.01,2013-07-30 06:29:00,
2013-07-30 01:34:00,77.7,72.5,30.04,SE,146,6.0,13.0,84,0.00,,SKC,0.00,VWS V14.01,2013-07-30 06:34:00,
2013-07-30 01:39:00,77.6,72.4,30.03,SSE,148,0.0,13.0,84,0.00,,SKC,0.00,VWS V14.01,2013-07-30 06:39:00,
2013-07-30 01:44:00,77.6,72.4,30.03,SE,146,3.0,13.0,84,0.00,,SKC,0.00,VWS V14.01,2013-07-30 06:44:00,
2013-07-30 01:49:00,77.5,72.3,30.03,SSE,147,5.0,13.0,84,0.00,,SKC,0.00,VWS V14.01,2013-07-30 06:49:00,
2013-07-30 01:54:00,77.5,72.3,30.03,SE,146,5.0,13.0,84,0.00,,SKC,0.00,VWS V14.01,2013-07-30 06:54:00,
2013-07-30 01:59:00,77.4,72.5,30.04,SSE,147,3.0,13.0,85,0.00,,SKC,0.00,VWS V14.01,2013-07-30 06:59:00,
2013-07-30 02:04:00,77.4,72.5,30.04,SE,144,5.0,11.0,85,0.00,,SKC,0.00,VWS V14.01,2013-07-30 07:04:00,
2013-07-30 02:09:00,77.4,72.5,30.04,SE,144,3.0,11.0,85,0.00,,SKC,0.00,VWS V14.01,2013-07-30 07:09:00,
2013-07-30 02:14:00,77.4,72.5,30.04,SE,145,6.0,11.0,85,0.00,,SKC,0.00,VWS V14.01,2013-07-30 07:14:00,
2013-07-30 02:19:00,77.3,72.4,30.05,SSE,150,5.0,11.0,85,0.00,,SKC,0.00,VWS V14.01,2013-07-30 07:19:00,
2013-07-30 02:24:00,77.3,72.4,30.05,SSE,148,3.0,11.0,85,0.00,,SKC,0.00,VWS V14.01,2013-07-30 07:24:00,
2013-07-30 02:29:00,77.4,72.5,30.04,SSE,158,6.0,11.0,85,0.00,,SKC,0.00,VWS V14.01,2013-07-30 07:29:00,
2013-07-30 02:34:00,77.3,72.4,30.04,SSE,155,9.0,10.0,85,0.00,,SKC,0.00,VWS V14.01,2013-07-30 07:34:00,
2013-07-30 02:39:00,77.3,72.4,30.04,SSE,154,9.0,10.0,85,0.00,,SKC,0.00,VWS V14.01,2013-07-30 07:39:00,
2013-07-30 02:44:00,77.3,72.8,30.04,SSE,152,6.0,10.0,86,0.00,,SKC,0.00,VWS V14.01,2013-07-30 07:44:00,
2013-07-30 02:49:00,77.3,72.8,30.03,SSE,151,6.0,10.0,86,0.00,,SKC,0.00,VWS V14.01,2013-07-30 07:49:00,
2013-07-30 02:54:00,77.3,72.8,30.04,SSE,152,5.0,10.0,86,0.00,,SKC,0.00,VWS V14.01,2013-07-30 07:54:00,
2013-07-30 02:59:00,77.2,72.7,30.03,SSE,148,10.0,11.0,86,0.00,,SKC,0.00,VWS V14.01,2013-07-30 07:59:00,
2013-07-30 03:04:00,77.2,72.3,30.03,SSE,159,3.0,9.0,85,0.00,,SKC,0.00,VWS V14.01,2013-07-30 08:04:00,
2013-07-30 03:09:00,77.3,72.4,30.03,SSE,157,7.0,9.0,85,0.00,,SKC,0.00,VWS V14.01,2013-07-30 08:09:00,
2013-07-30 03:14:00,77.3,72.4,30.03,SSE,148,0.0,11.0,85,0.00,,SKC,0.00,VWS V14.01,2013-07-30 08:14:00,
2013-07-30 03:19:00,77.3,72.4,30.03,SSE,165,3.0,11.0,85,0.00,,SKC,0.00,VWS V14.01,2013-07-30 08:19:00,
2013-07-30 03:24:00,77.3,72.4,30.04,SSE,165,5.0,11.0,85,0.00,,SKC,0.00,VWS V14.01,2013-07-30 08:24:00,
2013-07-30 03:29:00,77.3,72.4,30.04,SSE,154,7.0,12.0,85,0.00,,SKC,0.00,VWS V14.01,2013-07-30 08:29:00,
2013-07-30 03:34:00,77.3,72.4,30.04,SSE,168,3.0,6.0,85,0.00,,SKC,0.00,VWS V14.01,2013-07-30 08:34:00,
2013-07-30 03:39:00,77.4,72.5,30.04,SSE,167,1.0,6.0,85,0.00,,SKC,0.00,VWS V14.01,2013-07-30 08:39:00,
2013-07-30 03:44:00,77.4,72.5,30.05,SSE,161,2.0,11.0,85,0.00,,SKC,0.00,VWS V14.01,2013-07-30 08:44:00,
2013-07-30 03:49:00,77.5,72.6,30.05,SSE,165,4.0,11.0,85,0.00,,SKC,0.00,VWS V14.01,2013-07-30 08:49:00,
2013-07-30 03:54:00,77.5,72.6,30.05,South,169,4.0,11.0,85,0.00,,SKC,0.00,VWS V14.01,2013-07-30 08:54:00,
2013-07-30 03:59:00,77.6,72.4,30.05,SSE,153,4.0,11.0,84,0.00,,SKC,0.00,VWS V14.01,2013-07-30 08:59:00,
2013-07-30 04:04:00,77.6,72.4,30.05,SSE,160,4.0,6.0,84,0.00,,SKC,0.00,VWS V14.01,2013-07-30 09:04:00,
2013-07-30 04:09:00,77.6,72.4,30.05,SSE,157,5.0,11.0,84,0.00,,SKC,0.00,VWS V14.01,2013-07-30 09:09:00,
2013-07-30 04:14:00,77.6,72.4,30.05,SSE,149,4.0,12.0,84,0.00,,SKC,0.00,VWS V14.01,2013-07-30 09:14:00,
2013-07-30 04:19:00,77.6,72.7,30.05,SSE,156,4.0,12.0,85,0.00,,SKC,0.00,VWS V14.01,2013-07-30 09:19:00,
2013-07-30 04:24:00,77.6,72.7,30.05,SSE,157,4.0,12.0,85,0.00,,SKC,0.00,VWS V14.01,2013-07-30 09:24:00,
2013-07-30 04:29:00,77.6,72.7,30.05,SSE,161,3.0,12.0,85,0.00,,SKC,0.00,VWS V14.01,2013-07-30 09:29:00,
2013-07-30 04:34:00,77.6,72.7,30.05,SE,146,4.0,9.0,85,0.00,,SKC,0.00,VWS V14.01,2013-07-30 09:34:00,
2013-07-30 04:39:00,77.6,72.4,30.05,SSE,150,9.0,9.0,84,0.00,,SKC,0.00,VWS V14.01,2013-07-30 09:39:00,
2013-07-30 04:44:00,77.6,72.4,30.05,SSE,165,4.0,9.0,84,0.00,,SKC,0.00,VWS V14.01,2013-07-30 09:44:00,
2013-07-30 04:49:00,77.6,72.4,30.05,SSE,166,4.0,9.0,84,0.00,,SKC,0.00,VWS V14.01,2013-07-30 09:49:00,
2013-07-30 04:54:00,77.5,72.3,30.05,South,169,2.0,9.0,84,0.00,,SKC,0.00,VWS V14.01,2013-07-30 09:54:00,
2013-07-30 04:59:00,77.5,72.3,30.05,SW,218,10.0,15.0,84,0.00,,SKC,0.00,VWS V14.01,2013-07-30 09:59:00,
2013-07-30 05:04:00,77.5,72.3,30.05,South,182,4.0,9.0,84,0.00,,SKC,0.00,VWS V14.01,2013-07-30 10:04:00,
2013-07-30 05:09:00,77.5,72.3,30.06,SSW,195,3.0,9.0,84,0.00,,SKC,0.00,VWS V14.01,2013-07-30 10:09:00,
2013-07-30 05:14:00,77.5,72.3,30.06,SSW,206,6.0,13.0,84,0.00,,SKC,0.00,VWS V14.01,2013-07-30 10:14:00,
2013-07-30 05:19:00,77.6,72.4,30.05,South,186,3.0,13.0,84,0.00,,SKC,0.00,VWS V14.01,2013-07-30 10:19:00,
2013-07-30 05:24:00,77.6,72.4,30.05,SSW,209,3.0,13.0,84,0.00,,SKC,0.00,VWS V14.01,2013-07-30 10:24:00,
2013-07-30 05:29:00,77.6,72.4,30.06,South,177,5.0,13.0,84,0.00,,SKC,0.00,VWS V14.01,2013-07-30 10:29:00,
2013-07-30 05:34:00,77.6,72.4,30.06,South,188,11.0,11.0,84,0.00,,SKC,0.00,VWS V14.01,2013-07-30 10:34:00,
2013-07-30 05:39:00,77.6,72.4,30.06,South,170,6.0,12.0,84,0.00,,SKC,0.00,VWS V14.01,2013-07-30 10:39:00,
2013-07-30 05:44:00,77.6,72.4,30.06,South,186,4.0,12.0,84,0.00,,SKC,0.00,VWS V14.01,2013-07-30 10:44:00,
2013-07-30 05:49:00,77.6,72.4,30.06,South,190,4.0,13.0,84,0.00,,SKC,0.00,VWS V14.01,2013-07-30 10:49:00,
2013-07-30 05:54:00,77.5,72.3,30.06,SSW,197,3.0,13.0,84,0.00,,SKC,0.00,VWS V14.01,2013-07-30 10:54:00,
2013-07-30 05:59:00,77.5,72.6,30.06,SSW,194,6.0,13.0,85,0.00,,SKC,0.00,VWS V14.01,2013-07-30 10:59:00,
2013-07-30 06:04:00,77.5,72.6,30.06,South,183,10.0,11.0,85,0.00,,SKC,0.00,VWS V14.01,2013-07-30 11:04:00,
2013-07-30 06:09:00,77.5,72.6,30.06,SSW,196,4.0,14.0,85,0.00,,SKC,0.00,VWS V14.01,2013-07-30 11:09:00,
2013-07-30 06:14:00,77.5,72.6,30.07,South,184,2.0,14.0,85,0.00,,SKC,0.00,VWS V14.01,2013-07-30 11:14:00,
2013-07-30 06:19:00,77.5,72.6,30.07,SSW,196,5.0,14.0,85,0.00,,SKC,0.00,VWS V14.01,2013-07-30 11:19:00,
2013-07-30 06:24:00,77.5,72.6,30.07,SSE,159,2.0,14.0,85,0.00,,SKC,0.00,VWS V14.01,2013-07-30 11:24:00,
2013-07-30 06:29:00,77.5,72.6,30.07,South,188,5.0,14.0,85,0.00,,SKC,0.00,VWS V14.01,2013-07-30 11:29:00,
2013-07-30 06:34:00,77.5,72.6,30.07,South,188,3.0,7.0,85,0.00,,SKC,0.00,VWS V14.01,2013-07-30 11:34:00,
2013-07-30 06:39:00,77.5,72.6,30.07,SSW,199,4.0,11.0,85,0.00,,SKC,0.00,VWS V14.01,2013-07-30 11:39:00,
2013-07-30 06:44:00,77.4,72.5,30.07,SSW,196,5.0,13.0,85,0.00,,SKC,0.00,VWS V14.01,2013-07-30 11:44:00,
2013-07-30 06:49:00,77.4,72.5,30.07,South,190,3.0,13.0,85,0.00,,SKC,0.00,VWS V14.01,2013-07-30 11:49:00,
2013-07-30 06:54:00,77.3,72.4,30.07,SSE,159,2.0,13.0,85,0.00,,SKC,0.00,VWS V14.01,2013-07-30 11:54:00,
2013-07-30 06:59:00,77.2,72.3,30.07,SSE,166,6.0,13.0,85,0.00,,SKC,0.00,VWS V14.01,2013-07-30 11:59:00,
2013-07-30 07:04:00,77.2,72.3,30.07,SSW,194,6.0,9.0,85,0.00,,SKC,0.00,VWS V14.01,2013-07-30 12:04:00,
2013-07-30 07:09:00,77.1,72.2,30.07,South,178,1.0,10.0,85,0.00,,SKC,0.00,VWS V14.01,2013-07-30 12:09:00,
2013-07-30 07:14:00,77.2,72.3,30.07,South,174,2.0,10.0,85,0.00,,SKC,0.00,VWS V14.01,2013-07-30 12:14:00,
2013-07-30 07:19:00,77.2,72.3,30.07,South,170,4.0,10.0,85,0.00,,SKC,0.00,VWS V14.01,2013-07-30 12:19:00,
2013-07-30 07:24:00,77.3,72.4,30.07,SSE,167,3.0,12.0,85,0.00,,SKC,0.00,VWS V14.01,2013-07-30 12:24:00,
2013-07-30 07:29:00,77.3,72.4,30.08,South,183,1.0,12.0,85,0.00,,SKC,0.00,VWS V14.01,2013-07-30 12:29:00,
2013-07-30 07:34:00,77.4,72.5,30.08,South,190,4.0,11.0,85,0.00,,SKC,0.00,VWS V14.01,2013-07-30 12:34:00,
2013-07-30 07:39:00,77.5,72.6,30.08,South,177,3.0,11.0,85,0.00,,SKC,0.00,VWS V14.01,2013-07-30 12:39:00,
2013-07-30 07:44:00,77.6,72.7,30.08,South,178,3.0,11.0,85,0.00,,SKC,0.00,VWS V14.01,2013-07-30 12:44:00,
2013-07-30 07:49:00,77.6,72.7,30.08,SSE,155,5.0,11.0,85,0.00,,SKC,0.00,VWS V14.01,2013-07-30 12:49:00,
2013-07-30 07:54:00,77.6,72.7,30.08,South,186,7.0,12.0,85,0.00,,SKC,0.00,VWS V14.01,2013-07-30 12:54:00,
2013-07-30 07:59:00,77.6,72.7,30.08,SSW,207,12.0,12.0,85,0.00,,SKC,0.00,VWS V14.01,2013-07-30 12:59:00,
2013-07-30 08:04:00,77.7,72.5,30.08,SSW,211,5.0,11.0,84,0.00,,SKC,0.00,VWS V14.01,2013-07-30 13:04:00,
2013-07-30 08:09:00,77.8,72.6,30.08,SSW,196,4.0,11.0,84,0.00,,SKC,0.00,VWS V14.01,2013-07-30 13:09:00,
2013-07-30 08:14:00,77.9,72.7,30.08,SSE,162,4.0,11.0,84,0.00,,SKC,0.00,VWS V14.01,2013-07-30 13:14:00,
2013-07-30 08:19:00,78.0,72.8,30.08,SSE,153,2.0,11.0,84,0.00,,SKC,0.00,VWS V14.01,2013-07-30 13:19:00,
2013-07-30 08:24:00,78.2,73.0,30.08,SSE,155,5.0,11.0,84,0.00,,SKC,0.00,VWS V14.01,2013-07-30 13:24:00,
2013-07-30 08:29:00,78.3,73.1,30.09,SSW,196,3.0,11.0,84,0.00,,SKC,0.00,VWS V14.01,2013-07-30 13:29:00,
2013-07-30 08:34:00,78.5,72.9,30.09,SSW,202,3.0,10.0,83,0.00,,SKC,0.00,VWS V14.01,2013-07-30 13:34:00,
2013-07-30 08:39:00,78.7,73.1,30.08,SSW,193,4.0,10.0,83,0.00,,SKC,0.00,VWS V14.01,2013-07-30 13:39:00,
2013-07-30 08:44:00,78.9,73.3,30.08,SSW,195,2.0,11.0,83,0.00,,SKC,0.00,VWS V14.01,2013-07-30 13:44:00,
2013-07-30 08:49:00,79.2,73.6,30.08,South,186,3.0,11.0,83,0.00,,SKC,0.00,VWS V14.01,2013-07-30 13:49:00,
2013-07-30 08:54:00,79.5,73.5,30.09,SSE,167,5.0,11.0,82,0.00,,SKC,0.00,VWS V14.01,2013-07-30 13:54:00,
2013-07-30 08:59:00,79.7,73.7,30.08,SE,141,5.0,14.0,82,0.00,,SKC,0.00,VWS V14.01,2013-07-30 13:59:00,
2013-07-30 09:04:00,79.9,73.6,30.08,SSE,163,6.0,11.0,81,0.00,,SKC,0.00,VWS V14.01,2013-07-30 14:04:00,
2013-07-30 09:09:00,80.1,73.8,30.08,SSE,152,10.0,14.0,81,0.00,,SKC,0.00,VWS V14.01,2013-07-30 14:09:00,
2013-07-30 09:14:00,80.4,73.7,30.08,SSE,152,6.0,14.0,80,0.00,,SKC,0.00,VWS V14.01,2013-07-30 14:14:00,
2013-07-30 09:19:00,80.5,73.4,30.08,SSE,155,5.0,14.0,79,0.00,,SKC,0.00,VWS V14.01,2013-07-30 14:19:00,
2013-07-30 09:24:00,80.6,73.5,30.09,SSW,196,5.0,14.0,79,0.00,,SKC,0.00,VWS V14.01,2013-07-30 14:24:00,
2013-07-30 09:29:00,80.5,73.4,30.09,SSE,167,4.0,14.0,79,0.00,,SKC,0.00,VWS V14.01,2013-07-30 14:29:00,
2013-07-30 09:34:00,80.5,73.4,30.08,SSE,166,4.0,10.0,79,0.00,,SKC,0.00,VWS V14.01,2013-07-30 14:34:00,
2013-07-30 09:39:00,80.8,73.3,30.08,SSE,150,2.0,11.0,78,0.00,,SKC,0.00,VWS V14.01,2013-07-30 14:39:00,
2013-07-30 09:44:00,81.0,73.5,30.09,South,188,10.0,12.0,78,0.00,,SKC,0.00,VWS V14.01,2013-07-30 14:44:00,
2013-07-30 09:49:00,81.1,73.6,30.08,SE,134,12.0,12.0,78,0.00,,SKC,0.00,VWS V14.01,2013-07-30 14:49:00,
2013-07-30 09:54:00,81.3,73.8,30.08,SSW,209,12.0,15.0,78,0.00,,SKC,0.00,VWS V14.01,2013-07-30 14:54:00,
2013-07-30 09:59:00,81.6,73.7,30.08,South,182,5.0,16.0,77,0.00,,SKC,0.00,VWS V14.01,2013-07-30 14:59:00,
2013-07-30 10:04:00,81.9,73.6,30.08,SSE,155,4.0,10.0,76,0.00,,SKC,0.00,VWS V14.01,2013-07-30 15:04:00,
2013-07-30 10:09:00,82.3,73.6,30.08,SSE,147,11.0,11.0,75,0.00,,SKC,0.00,VWS V14.01,2013-07-30 15:09:00,
2013-07-30 10:14:00,82.5,73.8,30.08,SSW,198,7.0,11.0,75,0.00,,SKC,0.00,VWS V14.01,2013-07-30 15:14:00,
2013-07-30 10:19:00,82.8,73.7,30.09,SSE,153,8.0,12.0,74,0.00,,SKC,0.00,VWS V14.01,2013-07-30 15:19:00,
2013-07-30 10:24:00,83.2,74.1,30.09,South,191,4.0,12.0,74,0.00,,SKC,0.00,VWS V14.01,2013-07-30 15:24:00,
2013-07-30 10:29:00,83.4,73.8,30.08,SSW,202,10.0,12.0,73,0.00,,SKC,0.00,VWS V14.01,2013-07-30 15:29:00,
2013-07-30 10:34:00,83.8,73.8,30.08,SSW,194,10.0,13.0,72,0.00,,SKC,0.00,VWS V14.01,2013-07-30 15:34:00,
2013-07-30 10:39:00,84.1,73.7,30.08,SE,143,9.0,13.0,71,0.00,,SKC,0.00,VWS V14.01,2013-07-30 15:39:00,
2013-07-30 10:44:00,84.6,73.7,30.09,South,178,5.0,13.0,70,0.00,,SKC,0.00,VWS V14.01,2013-07-30 15:44:00,
2013-07-30 10:49:00,85.0,73.7,30.08,South,188,12.0,14.0,69,0.00,,SKC,0.00,VWS V14.01,2013-07-30 15:49:00,
2013-07-30 10:54:00,85.4,73.6,30.08,SW,219,7.0,14.0,68,0.00,,SKC,0.00,VWS V14.01,2013-07-30 15:54:00,
2013-07-30 10:59:00,85.8,73.6,30.08,South,187,4.0,14.0,67,0.00,,SKC,0.00,VWS V14.01,2013-07-30 15:59:00,
2013-07-30 11:04:00,86.0,73.8,30.08,SSE,156,6.0,11.0,67,0.00,,SKC,0.00,VWS V14.01,2013-07-30 16:04:00,
2013-07-30 11:09:00,86.1,73.4,30.08,SE,130,11.0,13.0,66,0.00,,SKC,0.00,VWS V14.01,2013-07-30 16:09:00,
2013-07-30 11:14:00,86.3,73.6,30.08,SSE,152,3.0,13.0,66,0.00,,SKC,0.00,VWS V14.01,2013-07-30 16:14:00,
2013-07-30 11:19:00,86.6,73.4,30.08,South,188,7.0,13.0,65,0.00,,SKC,0.00,VWS V14.01,2013-07-30 16:19:00,
2013-07-30 11:24:00,86.9,73.7,30.08,SSW,197,3.0,13.0,65,0.00,,SKC,0.00,VWS V14.01,2013-07-30 16:24:00,
2013-07-30 11:29:00,87.3,74.1,30.08,SSE,150,5.0,13.0,65,0.00,,SKC,0.00,VWS V14.01,2013-07-30 16:29:00,
2013-07-30 11:34:00,87.5,73.8,30.08,South,182,9.0,13.0,64,0.00,,SKC,0.00,VWS V14.01,2013-07-30 16:34:00,
2013-07-30 11:39:00,87.7,73.6,30.08,South,184,4.0,14.0,63,0.00,,SKC,0.00,VWS V14.01,2013-07-30 16:39:00,
2013-07-30 11:44:00,87.7,73.6,30.08,SSW,196,5.0,14.0,63,0.00,,SKC,0.00,VWS V14.01,2013-07-30 16:44:00,
2013-07-30 11:49:00,87.8,73.6,30.08,SSE,168,7.0,14.0,63,0.00,,SKC,0.00,VWS V14.01,2013-07-30 16:49:00,
2013-07-30 11:54:00,88.2,73.6,30.07,SSE,153,5.0,14.0,62,0.00,,SKC,0.00,VWS V14.01,2013-07-30 16:54:00,
2013-07-30 11:59:00,88.6,73.4,30.07,SSW,195,11.0,14.0,61,0.00,,SKC,0.00,VWS V14.01,2013-07-30 16:59:00,
2013-07-30 12:04:00,88.8,73.6,30.07,SW,218,4.0,4.0,61,0.00,,SKC,0.00,VWS V14.01,2013-07-30 17:04:00,
2013-07-30 12:09:00,89.0,73.3,30.07,SSE,149,6.0,12.0,60,0.00,,SKC,0.00,VWS V14.01,2013-07-30 17:09:00,
2013-07-30 12:14:00,89.2,73.0,30.07,SE,138,12.0,13.0,59,0.00,,SKC,0.00,VWS V14.01,2013-07-30 17:14:00,
2013-07-30 12:19:00,89.3,73.1,30.07,SSW,194,10.0,16.0,59,0.00,,SKC,0.00,VWS V14.01,2013-07-30 17:19:00,
2013-07-30 12:24:00,89.5,73.3,30.06,SSE,153,6.0,16.0,59,0.00,,SKC,0.00,VWS V14.01,2013-07-30 17:24:00,
2013-07-30 12:29:00,89.8,73.1,30.06,SSE,148,3.0,16.0,58,0.00,,SKC,0.00,VWS V14.01,2013-07-30 17:29:00,
2013-07-30 12:34:00,90.1,73.3,30.06,SE,144,4.0,11.0,58,0.00,,SKC,0.00,VWS V14.01,2013-07-30 17:34:00,
2013-07-30 12:39:00,90.3,73.5,30.06,SE,143,4.0,15.0,58,0.00,,SKC,0.00,VWS V14.01,2013-07-30 17:39:00,
2013-07-30 12:44:00,90.6,73.3,30.06,South,171,6.0,15.0,57,0.00,,SKC,0.00,VWS V14.01,2013-07-30 17:44:00,
2013-07-30 12:49:00,91.1,73.2,30.06,SE,146,5.0,15.0,56,0.00,,SKC,0.00,VWS V14.01,2013-07-30 17:49:00,
2013-07-30 12:54:00,91.4,73.0,30.06,SSE,166,6.0,15.0,55,0.00,,SKC,0.00,VWS V14.01,2013-07-30 17:54:00,
2013-07-30 12:59:00,91.8,72.8,30.06,SSE,166,3.0,15.0,54,0.00,,SKC,0.00,VWS V14.01,2013-07-30 17:59:00,
2013-07-30 13:04:00,91.9,73.4,30.05,SSW,201,4.0,10.0,55,0.00,,SKC,0.00,VWS V14.01,2013-07-30 18:04:00,
2013-07-30 13:09:00,92.2,73.2,30.05,SSE,152,5.0,10.0,54,0.00,,SKC,0.00,VWS V14.01,2013-07-30 18:09:00,
2013-07-30 13:14:00,92.2,72.6,30.05,SE,144,4.0,11.0,53,0.00,,SKC,0.00,VWS V14.01,2013-07-30 18:14:00,
2013-07-30 13:19:00,92.5,72.9,30.04,South,190,3.0,11.0,53,0.00,,SKC,0.00,VWS V14.01,2013-07-30 18:19:00,
2013-07-30 13:24:00,92.7,73.1,30.04,SSE,150,1.0,15.0,53,0.00,,SKC,0.00,VWS V14.01,2013-07-30 18:24:00,
2013-07-30 13:29:00,92.8,72.6,30.04,SE,138,13.0,15.0,52,0.00,,SKC,0.00,VWS V14.01,2013-07-30 18:29:00,
2013-07-30 13:34:00,92.8,72.0,30.04,SSE,167,8.0,11.0,51,0.00,,SKC,0.00,VWS V14.01,2013-07-30 18:34:00,
2013-07-30 13:39:00,92.8,72.0,30.04,SSE,161,8.0,15.0,51,0.00,,SKC,0.00,VWS V14.01,2013-07-30 18:39:00,
2013-07-30 13:44:00,92.9,72.1,30.04,SSE,148,1.0,15.0,51,0.00,,SKC,0.00,VWS V14.01,2013-07-30 18:44:00,
2013-07-30 13:49:00,93.1,72.9,30.03,South,186,0.0,15.0,52,0.00,,SKC,0.00,VWS V14.01,2013-07-30 18:49:00,
2013-07-30 13:54:00,93.3,71.9,30.03,SSE,158,6.0,16.0,50,0.00,,SKC,0.00,VWS V14.01,2013-07-30 18:54:00,
2013-07-30 13:59:00,93.5,70.9,30.03,South,191,1.0,16.0,48,0.00,,SKC,0.00,VWS V14.01,2013-07-30 18:59:00,
2013-07-30 14:04:00,93.5,72.1,30.03,SSE,165,1.0,11.0,50,0.00,,SKC,0.00,VWS V14.01,2013-07-30 19:04:00,
2013-07-30 14:09:00,93.9,71.8,30.03,SSE,161,4.0,11.0,49,0.00,,SKC,0.00,VWS V14.01,2013-07-30 19:09:00,
2013-07-30 14:14:00,94.4,71.7,30.03,SSW,196,5.0,14.0,48,0.00,,SKC,0.00,VWS V14.01,2013-07-30 19:14:00,
2013-07-30 14:19:00,94.5,70.5,30.02,SW,216,9.0,15.0,46,0.00,,SKC,0.00,VWS V14.01,2013-07-30 19:19:00,
2013-07-30 14:24:00,94.6,70.6,30.02,SSE,153,5.0,16.0,46,0.00,,SKC,0.00,VWS V14.01,2013-07-30 19:24:00,
2013-07-30 14:29:00,94.9,70.2,30.02,SSE,150,4.0,16.0,45,0.00,,SKC,0.00,VWS V14.01,2013-07-30 19:29:00,
2013-07-30 14:34:00,94.9,69.6,30.01,SSE,155,6.0,13.0,44,0.00,,SKC,0.00,VWS V14.01,2013-07-30 19:34:00,
2013-07-30 14:39:00,95.0,68.3,30.01,SSW,198,10.0,13.0,42,0.00,,SKC,0.00,VWS V14.01,2013-07-30 19:39:00,
2013-07-30 14:44:00,95.1,69.1,30.01,SSE,155,8.0,14.0,43,0.00,,SKC,0.00,VWS V14.01,2013-07-30 19:44:00,
2013-07-30 14:49:00,95.2,68.5,30.01,SSW,192,9.0,14.0,42,0.00,,SKC,0.00,VWS V14.01,2013-07-30 19:49:00,
2013-07-30 14:54:00,95.4,69.4,30.01,SE,146,9.0,17.0,43,0.00,,SKC,0.00,VWS V14.01,2013-07-30 19:54:00,
2013-07-30 14:59:00,95.8,69.0,30.01,SSW,198,10.0,17.0,42,0.00,,SKC,0.00,VWS V14.01,2013-07-30 19:59:00,
2013-07-30 15:04:00,96.2,67.2,30.00,SSW,198,9.0,15.0,39,0.00,,SKC,0.00,VWS V14.01,2013-07-30 20:04:00,
2013-07-30 15:09:00,96.4,67.4,30.00,South,178,6.0,15.0,39,0.00,,SKC,0.00,VWS V14.01,2013-07-30 20:09:00,
2013-07-30 15:14:00,96.7,69.1,30.00,South,186,5.0,15.0,41,0.00,,SKC,0.00,VWS V14.01,2013-07-30 20:14:00,
2013-07-30 15:19:00,97.1,68.8,30.00,SSW,197,7.0,15.0,40,0.00,,SKC,0.00,VWS V14.01,2013-07-30 20:19:00,
2013-07-30 15:24:00,97.3,69.7,30.00,South,174,6.0,15.0,41,0.00,,SKC,0.00,VWS V14.01,2013-07-30 20:24:00,
2013-07-30 15:29:00,97.2,68.9,30.00,SE,138,5.0,15.0,40,0.00,,SKC,0.00,VWS V14.01,2013-07-30 20:29:00,
2013-07-30 15:34:00,97.1,68.0,30.00,SSW,196,4.0,10.0,39,0.00,,SKC,0.00,VWS V14.01,2013-07-30 20:34:00,
2013-07-30 15:39:00,97.2,68.1,29.99,South,179,5.0,15.0,39,0.00,,SKC,0.00,VWS V14.01,2013-07-30 20:39:00,
2013-07-30 15:44:00,97.4,67.6,29.99,SSE,148,4.0,15.0,38,0.00,,SKC,0.00,VWS V14.01,2013-07-30 20:44:00,
2013-07-30 15:49:00,97.7,67.1,29.99,South,186,5.0,16.0,37,0.00,,SKC,0.00,VWS V14.01,2013-07-30 20:49:00,
2013-07-30 15:54:00,97.9,67.2,29.98,SE,144,0.0,16.0,37,0.00,,SKC,0.00,VWS V14.01,2013-07-30 20:54:00,
2013-07-30 15:59:00,98.1,67.4,29.98,South,171,4.0,16.0,37,0.00,,SKC,0.00,VWS V14.01,2013-07-30 20:59:00,
2013-07-30 16:04:00,98.2,66.7,29.98,SSW,198,7.0,13.0,36,0.00,,SKC,0.00,VWS V14.01,2013-07-30 21:04:00,
2013-07-30 16:09:00,98.3,67.6,29.98,SSE,151,5.0,13.0,37,0.00,,SKC,0.00,VWS V14.01,2013-07-30 21:09:00,
2013-07-30 16:14:00,98.3,67.6,29.98,SSE,159,3.0,13.0,37,0.00,,SKC,0.00,VWS V14.01,2013-07-30 21:14:00,
2013-07-30 16:19:00,98.4,66.9,29.98,SW,223,10.0,13.0,36,0.00,,SKC,0.00,VWS V14.01,2013-07-30 21:19:00,
2013-07-30 16:24:00,98.5,65.3,29.97,SSE,157,9.0,13.0,34,0.00,,SKC,0.00,VWS V14.01,2013-07-30 21:24:00,
2013-07-30 16:29:00,98.6,65.4,29.97,SE,144,4.0,13.0,34,0.00,,SKC,0.00,VWS V14.01,2013-07-30 21:29:00,
2013-07-30 16:34:00,98.7,66.3,29.97,SSW,211,11.0,11.0,35,0.00,,SKC,0.00,VWS V14.01,2013-07-30 21:34:00,
2013-07-30 16:39:00,98.8,65.6,29.97,SSW,196,11.0,12.0,34,0.00,,SKC,0.00,VWS V14.01,2013-07-30 21:39:00,
2013-07-30 16:44:00,98.9,64.8,29.97,SSE,163,4.0,19.0,33,0.00,,SKC,0.00,VWS V14.01,2013-07-30 21:44:00,
2013-07-30 16:49:00,98.8,66.4,29.97,SSW,196,5.0,19.0,35,0.00,,SKC,0.00,VWS V14.01,2013-07-30 21:49:00,
2013-07-30 16:54:00,98.7,66.3,29.97,SE,145,5.0,19.0,35,0.00,,SKC,0.00,VWS V14.01,2013-07-30 21:54:00,
2013-07-30 16:59:00,98.7,66.3,29.97,SSE,160,10.0,19.0,35,0.00,,SKC,0.00,VWS V14.01,2013-07-30 21:59:00,
2013-07-30 17:04:00,98.8,67.2,29.97,SSW,209,3.0,13.0,36,0.00,,SKC,0.00,VWS V14.01,2013-07-30 22:04:00,
2013-07-30 17:09:00,98.8,64.7,29.97,SE,140,9.0,17.0,33,0.00,,SKC,0.00,VWS V14.01,2013-07-30 22:09:00,
2013-07-30 17:14:00,98.9,64.8,29.96,SSW,208,5.0,17.0,33,0.00,,SKC,0.00,VWS V14.01,2013-07-30 22:14:00,
2013-07-30 17:19:00,99.0,64.9,29.97,South,190,6.0,17.0,33,0.00,,SKC,0.00,VWS V14.01,2013-07-30 22:19:00,
2013-07-30 17:24:00,99.1,65.8,29.96,SSW,206,10.0,17.0,34,0.00,,SKC,0.00,VWS V14.01,2013-07-30 22:24:00,
2013-07-30 17:29:00,99.0,65.8,29.96,SW,231,5.0,17.0,34,0.00,,SKC,0.00,VWS V14.01,2013-07-30 22:29:00,
2013-07-30 17:34:00,99.1,67.5,29.96,SE,144,8.0,9.0,36,0.00,,SKC,0.00,VWS V14.01,2013-07-30 22:34:00,
2013-07-30 17:39:00,98.9,68.1,29.96,SE,136,6.0,13.0,37,0.00,,SKC,0.00,VWS V14.01,2013-07-30 22:39:00,
2013-07-30 17:44:00,98.6,67.8,29.96,SSW,197,7.0,15.0,37,0.00,,SKC,0.00,VWS V14.01,2013-07-30 22:44:00,
2013-07-30 17:49:00,98.4,66.9,29.96,SE,146,5.0,15.0,36,0.00,,SKC,0.00,VWS V14.01,2013-07-30 22:49:00,
2013-07-30 17:54:00,98.1,66.6,29.96,SSW,198,5.0,15.0,36,0.00,,SKC,0.00,VWS V14.01,2013-07-30 22:54:00,
2013-07-30 17:59:00,98.0,67.3,29.96,SSE,148,4.0,15.0,37,0.00,,SKC,0.00,VWS V14.01,2013-07-30 22:59:00,
2013-07-30 18:04:00,97.9,67.2,29.96,SE,139,3.0,13.0,37,0.00,,SKC,0.00,VWS V14.01,2013-07-30 23:04:00,
2013-07-30 18:09:00,97.8,66.3,29.95,SE,144,5.0,13.0,36,0.00,,SKC,0.00,VWS V14.01,2013-07-30 23:09:00,
2013-07-30 18:14:00,97.7,67.8,29.96,SSE,161,6.0,13.0,38,0.00,,SKC,0.00,VWS V14.01,2013-07-30 23:14:00,
2013-07-30 18:19:00,97.7,67.1,29.96,SE,145,14.0,16.0,37,0.00,,SKC,0.00,VWS V14.01,2013-07-30 23:19:00,
2013-07-30 18:24:00,97.5,66.9,29.96,SE,144,5.0,16.0,37,0.00,,SKC,0.00,VWS V14.01,2013-07-30 23:24:00,
2013-07-30 18:29:00,97.3,66.7,29.95,SSE,150,2.0,16.0,37,0.00,,SKC,0.00,VWS V14.01,2013-07-30 23:29:00,
2013-07-30 18:34:00,97.3,66.7,29.96,SSE,150,8.0,9.0,37,0.00,,SKC,0.00,VWS V14.01,2013-07-30 23:34:00,
2013-07-30 18:39:00,97.3,66.7,29.95,SSE,157,5.0,9.0,37,0.00,,SKC,0.00,VWS V14.01,2013-07-30 23:39:00,
2013-07-30 18:44:00,97.3,66.7,29.95,SE,146,2.0,15.0,37,0.00,,SKC,0.00,VWS V14.01,2013-07-30 23:44:00,
2013-07-30 18:49:00,97.2,66.6,29.95,SSE,148,3.0,15.0,37,0.00,,SKC,0.00,VWS V14.01,2013-07-30 23:49:00,
2013-07-30 18:54:00,97.2,66.6,29.95,SE,144,4.0,15.0,37,0.00,,SKC,0.00,VWS V14.01,2013-07-30 23:54:00,
2013-07-30 18:59:00,97.1,65.7,29.95,South,170,6.0,16.0,36,0.00,,SKC,0.00,VWS V14.01,2013-07-30 23:59:00,
2013-07-30 19:04:00,96.8,65.5,29.95,SE,145,1.0,10.0,36,0.00,,SKC,0.00,VWS V14.01,2013-07-31 00:04:00,
2013-07-30 19:09:00,96.6,66.1,29.95,SE,141,6.0,13.0,37,0.00,,SKC,0.00,VWS V14.01,2013-07-31 00:09:00,
2013-07-30 19:14:00,96.5,66.8,29.96,SSE,155,4.0,14.0,38,0.00,,SKC,0.00,VWS V14.01,2013-07-31 00:14:00,
2013-07-30 19:19:00,96.2,68.7,29.96,SE,138,6.0,14.0,41,0.00,,SKC,0.00,VWS V14.01,2013-07-31 00:19:00,
2013-07-30 19:24:00,95.9,69.1,29.95,SE,140,8.0,16.0,42,0.00,,SKC,0.00,VWS V14.01,2013-07-31 00:24:00,
2013-07-30 19:29:00,95.6,69.6,29.95,SSW,204,5.0,16.0,43,0.00,,SKC,0.00,VWS V14.01,2013-07-31 00:29:00,
2013-07-30 19:34:00,95.1,71.1,29.96,SSE,159,7.0,16.0,46,0.00,,SKC,0.00,VWS V14.01,2013-07-31 00:34:00,
2013-07-30 19:39:00,94.5,71.2,29.96,SSE,151,5.0,18.0,47,0.00,,SKC,0.00,VWS V14.01,2013-07-31 00:39:00,
2013-07-30 19:44:00,93.9,71.8,29.96,SE,129,6.0,19.0,49,0.00,,SKC,0.00,VWS V14.01,2013-07-31 00:44:00,
2013-07-30 19:49:00,93.4,71.4,29.97,SSE,148,6.0,19.0,49,0.00,,SKC,0.00,VWS V14.01,2013-07-31 00:49:00,
2013-07-30 19:54:00,92.9,70.9,29.97,SSE,151,10.0,19.0,49,0.00,,SKC,0.00,VWS V14.01,2013-07-31 00:54:00,
2013-07-30 19:59:00,92.4,71.1,29.97,SE,136,8.0,19.0,50,0.00,,SKC,0.00,VWS V14.01,2013-07-31 00:59:00,
2013-07-30 20:04:00,91.9,70.6,29.97,SSE,157,5.0,13.0,50,0.00,,SKC,0.00,VWS V14.01,2013-07-31 01:04:00,
2013-07-30 20:09:00,91.5,70.8,29.97,SSE,159,13.0,13.0,51,0.00,,SKC,0.00,VWS V14.01,2013-07-31 01:09:00,
2013-07-30 20:14:00,91.2,70.6,29.97,SE,146,6.0,13.0,51,0.00,,SKC,0.00,VWS V14.01,2013-07-31 01:14:00,
2013-07-30 20:19:00,90.9,70.3,29.97,SSE,150,10.0,16.0,51,0.00,,SKC,0.00,VWS V14.01,2013-07-31 01:19:00,
2013-07-30 20:24:00,90.6,70.0,29.97,SSE,155,5.0,16.0,51,0.00,,SKC,0.00,VWS V14.01,2013-07-31 01:24:00,
2013-07-30 20:29:00,90.4,69.8,29.97,SSE,147,1.0,16.0,51,0.00,,SKC,0.00,VWS V14.01,2013-07-31 01:29:00,
2013-07-30 20:34:00,90.2,69.6,29.97,SE,142,5.0,9.0,51,0.00,,SKC,0.00,VWS V14.01,2013-07-31 01:34:00,
2013-07-30 20:39:00,90.0,69.5,29.98,SE,139,4.0,12.0,51,0.00,,SKC,0.00,VWS V14.01,2013-07-31 01:39:00,
2013-07-30 20:44:00,89.8,69.3,29.98,SE,142,3.0,12.0,51,0.00,,SKC,0.00,VWS V14.01,2013-07-31 01:44:00,
2013-07-30 20:49:00,89.6,69.1,29.98,SE,146,13.0,13.0,51,0.00,,SKC,0.00,VWS V14.01,2013-07-31 01:49:00,
2013-07-30 20:54:00,89.4,68.9,29.99,SE,140,9.0,13.0,51,0.00,,SKC,0.00,VWS V14.01,2013-07-31 01:54:00,
2013-07-30 20:59:00,89.2,68.2,29.99,SE,146,4.0,14.0,50,0.00,,SKC,0.00,VWS V14.01,2013-07-31 01:59:00,
2013-07-30 21:04:00,89.0,68.5,29.99,SSE,150,4.0,11.0,51,0.00,,SKC,0.00,VWS V14.01,2013-07-31 02:04:00,
2013-07-30 21:09:00,88.9,68.4,29.99,SE,140,7.0,13.0,51,0.00,,SKC,0.00,VWS V14.01,2013-07-31 02:09:00,
2013-07-30 21:14:00,88.6,68.7,29.99,SE,146,7.0,16.0,52,0.00,,SKC,0.00,VWS V14.01,2013-07-31 02:14:00,
2013-07-30 21:19:00,88.3,69.0,30.00,SE,146,5.0,16.0,53,0.00,,SKC,0.00,VWS V14.01,2013-07-31 02:19:00,
2013-07-30 21:24:00,88.0,69.3,30.00,SE,142,13.0,18.0,54,0.00,,SKC,0.00,VWS V14.01,2013-07-31 02:24:00,
2013-07-30 21:29:00,87.6,68.9,30.00,SSE,159,9.0,18.0,54,0.00,,SKC,0.00,VWS V14.01,2013-07-31 02:29:00,
2013-07-30 21:34:00,87.3,69.2,30.00,SSE,149,7.0,12.0,55,0.00,,SKC,0.00,VWS V14.01,2013-07-31 02:34:00,
2013-07-30 21:39:00,86.9,68.8,30.01,SSE,150,10.0,12.0,55,0.00,,SKC,0.00,VWS V14.01,2013-07-31 02:39:00,
2013-07-30 21:44:00,86.6,69.1,30.01,SE,145,6.0,14.0,56,0.00,,SKC,0.00,VWS V14.01,2013-07-31 02:44:00,
2013-07-30 21:49:00,86.3,69.3,30.01,SSE,153,12.0,19.0,57,0.00,,SKC,0.00,VWS V14.01,2013-07-31 02:49:00,
2013-07-30 21:54:00,85.9,69.4,30.01,SSE,148,3.0,19.0,58,0.00,,SKC,0.00,VWS V14.01,2013-07-31 02:54:00,
2013-07-30 21:59:00,85.7,69.7,30.01,SSE,150,6.0,19.0,59,0.00,,SKC,0.00,VWS V14.01,2013-07-31 02:59:00,
2013-07-30 22:04:00,85.4,69.9,30.01,SSE,155,5.0,11.0,60,0.00,,SKC,0.00,VWS V14.01,2013-07-31 03:04:00,
2013-07-30 22:09:00,85.1,70.2,30.02,SSE,156,5.0,11.0,61,0.00,,SKC,0.00,VWS V14.01,2013-07-31 03:09:00,
2013-07-30 22:14:00,84.7,70.7,30.01,SE,144,6.0,12.0,63,0.00,,SKC,0.00,VWS V14.01,2013-07-31 03:14:00,
2013-07-30 22:19:00,84.4,70.9,30.02,SE,146,4.0,13.0,64,0.00,,SKC,0.00,VWS V14.01,2013-07-31 03:19:00,
2013-07-30 22:24:00,84.1,70.6,30.02,SSE,148,3.0,13.0,64,0.00,,SKC,0.00,VWS V14.01,2013-07-31 03:24:00,
2013-07-30 22:29:00,83.8,70.8,30.03,SSE,154,6.0,13.0,65,0.00,,SKC,0.00,VWS V14.01,2013-07-31 03:29:00,
2013-07-30 22:34:00,83.5,70.9,30.03,SSE,147,9.0,11.0,66,0.00,,SKC,0.00,VWS V14.01,2013-07-31 03:34:00,
2013-07-30 22:39:00,83.3,71.2,30.03,SE,144,5.0,13.0,67,0.00,,SKC,0.00,VWS V14.01,2013-07-31 03:39:00,
2013-07-30 22:44:00,82.9,71.3,30.03,SSE,150,8.0,13.0,68,0.00,,SKC,0.00,VWS V14.01,2013-07-31 03:44:00,
2013-07-30 22:49:00,82.7,71.5,30.04,SE,140,7.0,13.0,69,0.00,,SKC,0.00,VWS V14.01,2013-07-31 03:49:00,
2013-07-30 22:54:00,82.5,71.3,30.04,SE,140,3.0,13.0,69,0.00,,SKC,0.00,VWS V14.01,2013-07-31 03:54:00,
2013-07-30 22:59:00,82.4,71.6,30.04,SSE,148,6.0,13.0,70,0.00,,SKC,0.00,VWS V14.01,2013-07-31 03:59:00,
2013-07-30 23:01:00,82.3,71.5,30.04,SSE,150,4.0,13.0,70,0.00,,SKC,0.00,VWS V14.01,2013-07-31 04:01:00,
2013-07-30 23:02:00,82.2,71.4,30.04,SSE,148,8.0,8.0,70,0.00,,SKC,0.00,VWS V14.01,2013-07-31 04:02:00,
2013-07-30 23:07:00,82.0,71.7,30.04,SE,138,4.0,13.0,71,0.00,,SKC,0.00,VWS V14.01,2013-07-31 04:07:00,
2013-07-30 23:12:00,81.8,71.9,30.05,SE,145,6.0,13.0,72,0.00,,SKC,0.00,VWS V14.01,2013-07-31 04:12:00,
2013-07-30 23:17:00,81.7,71.8,30.05,SSE,148,6.0,13.0,72,0.00,,SKC,0.00,VWS V14.01,2013-07-31 04:17:00,
2013-07-30 23:22:00,81.5,72.0,30.05,SE,144,4.0,13.0,73,0.00,,SKC,0.00,VWS V14.01,2013-07-31 04:22:00,
2013-07-30 23:27:00,81.4,71.9,30.05,SSE,147,4.0,13.0,73,0.00,,SKC,0.00,VWS V14.01,2013-07-31 04:27:00,
2013-07-30 23:32:00,81.2,72.1,30.05,SE,141,6.0,13.0,74,0.00,,SKC,0.00,VWS V14.01,2013-07-31 04:32:00,
2013-07-30 23:37:00,81.0,72.3,30.05,SSE,149,6.0,13.0,75,0.00,,SKC,0.00,VWS V14.01,2013-07-31 04:37:00,
2013-07-30 23:42:00,80.9,72.2,30.05,SE,143,4.0,13.0,75,0.00,,SKC,0.00,VWS V14.01,2013-07-31 04:42:00,
2013-07-30 23:47:00,80.7,72.4,30.05,SE,138,6.0,13.0,76,0.00,,SKC,0.00,VWS V14.01,2013-07-31 04:47:00,
2013-07-30 23:52:00,80.5,72.2,30.05,SE,146,4.0,13.0,76,0.00,,SKC,0.00,VWS V14.01,2013-07-31 04:52:00,
2013-07-30 23:57:00,80.3,72.4,30.06,SSE,157,4.0,13.0,77,0.00,,SKC,0.00,VWS V14.01,2013-07-31 04:57:00,